Time,TemperatureF,DewpointF,PressureIn,WindDirection,WindDirectionDegrees,WindSpeedMPH,WindSpeedGustMPH,Humidity,HourlyPrecipIn,Conditions,Clouds,dailyrainin,SolarRadiationWatts/m^2,SoftwareType,DateUTC
2013-02-02 00:12:00,44.6,43.0,30.22,SSW,198,0.0,0.0,93,0.00,,,0.00,0,weatherlink.com 1.10,2013-02-02 08:12:00,
2013-02-02 00:27:00,44.1,42.0,30.22,SSW,198,0.0,0.0,93,0.00,,,0.00,0,weatherlink.com 1.10,2013-02-02 08:27:00,
2013-02-02 00:42:00,43.3,42.0,30.22,SSW,198,0.0,0.0,93,0.00,,,0.00,0,weatherlink.com 1.10,2013-02-02 08:42:00,
2013-02-02 00:57:00,43.6,42.0,30.22,SSW,198,0.0,0.0,93,0.00,,,0.00,0,weatherlink.com 1.10,2013-02-02 08:57:00,
2013-02-02 01:12:00,43.4,42.0,30.22,SSW,198,0.0,0.0,93,0.00,,,0.00,0,weatherlink.com 1.10,2013-02-02 09:12:00,
2013-02-02 01:27:00,43.3,42.0,30.22,SSW,198,0.0,0.0,93,0.00,,,0.00,0,weatherlink.com 1.10,2013-02-02 09:27:00,
2013-02-02 01:42:00,42.5,41.0,30.23,SSW,198,0.0,0.0,93,0.00,,,0.00,0,weatherlink.com 1.10,2013-02-02 09:42:00,
2013-02-02 01:57:00,42.7,41.0,30.23,SSW,198,0.0,0.0,94,0.00,,,0.00,0,weatherlink.com 1.10,2013-02-02 09:57:00,
2013-02-02 02:12:00,42.5,41.0,30.23,SSW,198,0.0,0.0,93,0.00,,,0.00,0,weatherlink.com 1.10,2013-02-02 10:12:00,
2013-02-02 02:27:00,41.5,40.0,30.24,SSW,198,0.0,0.0,94,0.00,,,0.00,0,weatherlink.com 1.10,2013-02-02 10:27:00,
2013-02-02 02:42:00,41.7,40.0,30.24,SSW,198,0.0,0.0,94,0.00,,,0.00,0,weatherlink.com 1.10,2013-02-02 10:42:00,
2013-02-02 02:57:00,42.0,40.0,30.23,SSW,198,0.0,0.0,94,0.00,,,0.00,0,weatherlink.com 1.10,2013-02-02 10:57:00,
2013-02-02 03:12:00,42.0,40.0,30.23,SSW,198,0.0,0.0,94,0.00,,,0.00,0,weatherlink.com 1.10,2013-02-02 11:12:00,
2013-02-02 03:27:00,41.5,40.0,30.23,SSW,198,0.0,0.0,94,0.00,,,0.00,0,weatherlink.com 1.10,2013-02-02 11:27:00,
2013-02-02 03:42:00,41.6,40.0,30.23,SSW,198,0.0,0.0,94,0.00,,,0.00,0,weatherlink.com 1.10,2013-02-02 11:42:00,
2013-02-02 03:57:00,42.0,40.0,30.23,SSW,198,0.0,0.0,94,0.00,,,0.00,0,weatherlink.com 1.10,2013-02-02 11:57:00,
2013-02-02 04:12:00,41.5,40.0,30.23,SSW,198,0.0,0.0,94,0.00,,,0.00,0,weatherlink.com 1.10,2013-02-02 12:12:00,
2013-02-02 04:27:00,40.9,39.0,30.23,SSW,198,0.0,0.0,94,0.00,,,0.00,0,weatherlink.com 1.10,2013-02-02 12:27:00,
2013-02-02 04:42:00,41.3,40.0,30.23,SSW,198,0.0,0.0,94,0.00,,,0.00,0,weatherlink.com 1.10,2013-02-02 12:42:00,
2013-02-02 04:57:00,41.2,40.0,30.23,SSW,198,0.0,0.0,94,0.00,,,0.00,0,weatherlink.com 1.10,2013-02-02 12:57:00,
2013-02-02 05:12:00,40.4,39.0,30.23,SSW,198,0.0,0.0,94,0.00,,,0.00,0,weatherlink.com 1.10,2013-02-02 13:12:00,
2013-02-02 05:27:00,40.2,39.0,30.23,SSW,198,0.0,0.0,94,0.00,,,0.00,0,weatherlink.com 1.10,2013-02-02 13:27:00,
2013-02-02 05:42:00,41.1,40.0,30.23,SSW,198,0.0,0.0,95,0.00,,,0.00,0,weatherlink.com 1.10,2013-02-02 13:42:00,
2013-02-02 05:58:00,41.2,40.0,30.23,SSW,198,0.0,0.0,94,0.00,,,0.00,0,weatherlink.com 1.10,2013-02-02 13:58:00,
2013-02-02 06:12:00,39.9,38.0,30.24,SSW,198,0.0,0.0,94,0.00,,,0.00,0,weatherlink.com 1.10,2013-02-02 14:12:00,
2013-02-02 06:27:00,39.3,38.0,30.24,SSW,198,0.0,0.0,94,0.00,,,0.00,0,weatherlink.com 1.10,2013-02-02 14:27:00,
2013-02-02 06:42:00,40.1,39.0,30.25,SSW,198,0.0,0.0,95,0.00,,,0.00,0,weatherlink.com 1.10,2013-02-02 14:42:00,
2013-02-02 06:57:00,40.1,39.0,30.26,SSW,198,0.0,0.0,95,0.00,,,0.00,0,weatherlink.com 1.10,2013-02-02 14:57:00,
2013-02-02 07:12:00,39.2,38.0,30.26,SSW,198,0.0,0.0,94,0.00,,,0.00,0,weatherlink.com 1.10,2013-02-02 15:12:00,
2013-02-02 07:27:00,39.2,38.0,30.26,SSW,198,0.0,0.0,95,0.00,,,0.00,7,weatherlink.com 1.10,2013-02-02 15:27:00,
2013-02-02 07:42:00,40.0,39.0,30.27,SSW,198,0.0,0.0,95,0.00,,,0.00,14,weatherlink.com 1.10,2013-02-02 15:42:00,
2013-02-02 07:58:00,39.8,39.0,30.27,SSW,198,0.0,0.0,95,0.00,,,0.00,25,weatherlink.com 1.10,2013-02-02 15:58:00,
2013-02-02 08:13:00,40.8,40.0,30.27,SSW,198,0.0,0.0,95,0.00,,,0.00,39,weatherlink.com 1.10,2013-02-02 16:13:00,
2013-02-02 08:28:00,41.6,40.0,30.28,SSW,198,0.0,1.0,95,0.00,,,0.00,49,weatherlink.com 1.10,2013-02-02 16:28:00,
2013-02-02 08:43:00,41.9,41.0,30.29,SSW,198,0.0,0.0,95,0.00,,,0.00,51,weatherlink.com 1.10,2013-02-02 16:43:00,
2013-02-02 08:58:00,42.5,41.0,30.30,SSW,198,0.0,0.0,95,0.00,,,0.00,128,weatherlink.com 1.10,2013-02-02 16:58:00,
2013-02-02 09:13:00,43.1,42.0,30.30,SSW,198,0.0,0.0,95,0.00,,,0.00,81,weatherlink.com 1.10,2013-02-02 17:13:00,
2013-02-02 09:28:00,43.9,43.0,30.30,SSW,198,0.0,0.0,95,0.00,,,0.00,95,weatherlink.com 1.10,2013-02-02 17:28:00,
2013-02-02 09:43:00,44.0,43.0,30.30,SSW,198,0.0,2.0,95,0.00,,,0.00,100,weatherlink.com 1.10,2013-02-02 17:43:00,
2013-02-02 09:58:00,44.8,44.0,30.30,SSW,198,0.0,1.0,95,0.00,,,0.00,132,weatherlink.com 1.10,2013-02-02 17:58:00,
2013-02-02 10:13:00,45.3,44.0,30.30,SSW,198,0.0,0.0,95,0.00,,,0.00,193,weatherlink.com 1.10,2013-02-02 18:13:00,
2013-02-02 10:28:00,46.4,45.0,30.30,ESE,123,0.0,2.0,95,0.00,,,0.00,237,weatherlink.com 1.10,2013-02-02 18:28:00,
2013-02-02 10:43:00,47.6,46.0,30.30,ESE,123,0.0,1.0,95,0.00,,,0.00,258,weatherlink.com 1.10,2013-02-02 18:43:00,
2013-02-02 10:58:00,48.6,47.0,30.30,East,82,0.0,3.0,95,0.00,,,0.00,311,weatherlink.com 1.10,2013-02-02 18:58:00,
2013-02-02 11:13:00,49.8,48.0,30.29,ENE,57,0.0,3.0,93,0.00,,,0.00,352,weatherlink.com 1.10,2013-02-02 19:13:00,
2013-02-02 11:28:00,50.5,48.0,30.29,ENE,57,0.0,4.0,91,0.00,,,0.00,415,weatherlink.com 1.10,2013-02-02 19:28:00,
2013-02-02 11:43:00,52.2,49.0,30.28,NNE,26,2.0,4.0,88,0.00,,,0.00,606,weatherlink.com 1.10,2013-02-02 19:43:00,
2013-02-02 11:58:00,53.0,49.0,30.27,NNE,27,0.0,5.0,86,0.00,,,0.00,515,weatherlink.com 1.10,2013-02-02 19:58:00,
2013-02-02 12:13:00,53.4,50.0,30.27,North,360,3.0,8.0,87,0.00,,,0.00,564,weatherlink.com 1.10,2013-02-02 20:13:00,
2013-02-02 12:28:00,54.3,50.0,30.26,NE,40,1.0,6.0,85,0.00,,,0.00,534,weatherlink.com 1.10,2013-02-02 20:28:00,
2013-02-02 12:44:00,55.4,51.0,30.26,North,350,3.0,6.0,84,0.00,,,0.00,461,weatherlink.com 1.10,2013-02-02 20:44:00,
2013-02-02 12:59:00,56.7,52.0,30.25,North,9,6.0,9.0,83,0.00,,,0.00,439,weatherlink.com 1.10,2013-02-02 20:59:00,
2013-02-02 13:14:00,57.1,50.0,30.24,NW,318,0.0,6.0,78,0.00,,,0.00,332,weatherlink.com 1.10,2013-02-02 21:14:00,
2013-02-02 13:28:00,57.7,51.0,30.24,WNW,300,0.0,3.0,78,0.00,,,0.00,376,weatherlink.com 1.10,2013-02-02 21:28:00,
2013-02-02 13:44:00,59.2,52.0,30.23,West,267,2.0,3.0,78,0.00,,,0.00,573,weatherlink.com 1.10,2013-02-02 21:44:00,
2013-02-02 13:59:00,59.2,51.0,30.23,WNW,300,5.0,6.0,75,0.00,,,0.00,548,weatherlink.com 1.10,2013-02-02 21:59:00,
2013-02-02 14:14:00,59.4,51.0,30.22,WNW,287,2.0,5.0,73,0.00,,,0.00,527,weatherlink.com 1.10,2013-02-02 22:14:00,
2013-02-02 14:29:00,60.2,51.0,30.22,NW,305,4.0,4.0,71,0.00,,,0.00,432,weatherlink.com 1.10,2013-02-02 22:29:00,
2013-02-02 14:44:00,61.6,53.0,30.21,NNW,345,3.0,4.0,73,0.00,,,0.00,476,weatherlink.com 1.10,2013-02-02 22:44:00,
2013-02-02 14:59:00,60.6,51.0,30.21,NE,38,4.0,5.0,71,0.00,,,0.00,401,weatherlink.com 1.10,2013-02-02 22:59:00,
2013-02-02 15:14:00,61.1,50.0,30.21,NNE,27,5.0,7.0,68,0.00,,,0.00,366,weatherlink.com 1.10,2013-02-02 23:14:00,
2013-02-02 15:29:00,62.0,51.0,30.21,NNE,26,1.0,7.0,68,0.00,,,0.00,411,weatherlink.com 1.10,2013-02-02 23:29:00,
2013-02-02 15:44:00,60.3,49.0,30.21,SE,128,4.0,6.0,67,0.00,,,0.00,318,weatherlink.com 1.10,2013-02-02 23:44:00,
2013-02-02 15:59:00,60.4,50.0,30.21,SSW,198,2.0,7.0,69,0.00,,,0.00,267,weatherlink.com 1.10,2013-02-02 23:59:00,
2013-02-02 16:14:00,59.4,50.0,30.21,SSW,210,3.0,6.0,71,0.00,,,0.00,213,weatherlink.com 1.10,2013-02-03 00:14:00,
2013-02-02 16:29:00,58.7,50.0,30.21,West,273,2.0,7.0,72,0.00,,,0.00,162,weatherlink.com 1.10,2013-02-03 00:29:00,
2013-02-02 16:44:00,56.2,48.0,30.22,West,265,2.0,7.0,75,0.00,,,0.00,111,weatherlink.com 1.10,2013-02-03 00:44:00,
2013-02-02 16:59:00,55.1,48.0,30.22,West,263,3.0,6.0,76,0.00,,,0.00,60,weatherlink.com 1.10,2013-02-03 00:59:00,
2013-02-02 17:14:00,54.1,47.0,30.23,SW,221,1.0,5.0,78,0.00,,,0.00,23,weatherlink.com 1.10,2013-02-03 01:14:00,
2013-02-02 17:29:00,52.9,47.0,30.23,SSW,202,0.0,2.0,79,0.00,,,0.00,11,weatherlink.com 1.10,2013-02-03 01:29:00,
2013-02-02 17:44:00,52.0,46.0,30.23,SSW,202,0.0,0.0,81,0.00,,,0.00,0,weatherlink.com 1.10,2013-02-03 01:44:00,
2013-02-02 17:59:00,51.3,46.0,30.23,SSW,202,0.0,0.0,82,0.00,,,0.00,0,weatherlink.com 1.10,2013-02-03 01:59:00,
2013-02-02 18:14:00,50.4,45.0,30.24,SSW,202,0.0,0.0,83,0.00,,,0.00,0,weatherlink.com 1.10,2013-02-03 02:14:00,
2013-02-02 18:29:00,49.7,45.0,30.24,SSW,202,0.0,1.0,85,0.00,,,0.00,0,weatherlink.com 1.10,2013-02-03 02:29:00,
2013-02-02 18:44:00,48.4,44.0,30.24,SSW,202,0.0,0.0,86,0.00,,,0.00,0,weatherlink.com 1.10,2013-02-03 02:44:00,
2013-02-02 18:59:00,47.7,44.0,30.24,SSW,202,0.0,0.0,88,0.00,,,0.00,0,weatherlink.com 1.10,2013-02-03 02:59:00,
2013-02-02 19:14:00,46.4,43.0,30.24,SSW,202,0.0,0.0,89,0.00,,,0.00,0,weatherlink.com 1.10,2013-02-03 03:14:00,
2013-02-02 19:29:00,45.8,43.0,30.24,SSW,202,0.0,1.0,91,0.00,,,0.00,0,weatherlink.com 1.10,2013-02-03 03:29:00,
2013-02-02 19:44:00,45.1,43.0,30.24,SSW,202,0.0,0.0,91,0.00,,,0.00,0,weatherlink.com 1.10,2013-02-03 03:44:00,
2013-02-02 19:59:00,44.5,42.0,30.23,SSW,202,0.0,0.0,92,0.00,,,0.00,0,weatherlink.com 1.10,2013-02-03 03:59:00,
2013-02-02 20:14:00,44.0,42.0,30.23,SSW,202,0.0,0.0,92,0.00,,,0.00,0,weatherlink.com 1.10,2013-02-03 04:14:00,
2013-02-02 20:29:00,43.7,42.0,30.23,SSW,202,0.0,0.0,93,0.00,,,0.00,0,weatherlink.com 1.10,2013-02-03 04:29:00,
2013-02-02 20:44:00,43.2,41.0,30.23,SSW,202,0.0,0.0,93,0.00,,,0.00,0,weatherlink.com 1.10,2013-02-03 04:44:00,
2013-02-02 20:59:00,43.0,41.0,30.23,SSW,202,0.0,0.0,93,0.00,,,0.00,0,weatherlink.com 1.10,2013-02-03 04:59:00,
2013-02-02 21:14:00,42.8,41.0,30.23,SSW,202,0.0,0.0,93,0.00,,,0.00,0,weatherlink.com 1.10,2013-02-03 05:14:00,
2013-02-02 21:29:00,42.6,41.0,30.23,SSW,202,0.0,0.0,93,0.00,,,0.00,0,weatherlink.com 1.10,2013-02-03 05:29:00,
2013-02-02 21:44:00,42.0,40.0,30.23,SSW,202,0.0,0.0,93,0.00,,,0.00,0,weatherlink.com 1.10,2013-02-03 05:44:00,
2013-02-02 21:59:00,42.5,41.0,30.23,SSW,202,0.0,0.0,94,0.00,,,0.00,0,weatherlink.com 1.10,2013-02-03 05:59:00,
2013-02-02 22:14:00,41.9,40.0,30.23,SSW,202,0.0,0.0,93,0.00,,,0.00,0,weatherlink.com 1.10,2013-02-03 06:14:00,
2013-02-02 22:29:00,41.3,40.0,30.23,SSW,202,0.0,0.0,94,0.00,,,0.00,0,weatherlink.com 1.10,2013-02-03 06:29:00,
2013-02-02 22:44:00,41.0,39.0,30.23,SSW,202,0.0,0.0,94,0.00,,,0.00,0,weatherlink.com 1.10,2013-02-03 06:44:00,
2013-02-02 22:59:00,40.7,39.0,30.24,SSW,202,0.0,0.0,94,0.00,,,0.00,0,weatherlink.com 1.10,2013-02-03 06:59:00,
2013-02-02 23:14:00,41.3,40.0,30.24,SSW,202,0.0,0.0,94,0.00,,,0.00,0,weatherlink.com 1.10,2013-02-03 07:14:00,
2013-02-02 23:29:00,40.4,39.0,30.24,SSW,202,0.0,0.0,94,0.00,,,0.00,0,weatherlink.com 1.10,2013-02-03 07:29:00,
2013-02-02 23:44:00,40.5,39.0,30.24,SSW,202,0.0,0.0,94,0.00,,,0.00,0,weatherlink.com 1.10,2013-02-03 07:44:00,
2013-02-02 23:59:00,39.8,38.0,30.24,SSW,202,0.0,0.0,94,0.00,,,0.00,0,weatherlink.com 1.10,2013-02-03 07:59:00,